Weather History for Shreveport, LA

Change the Weather History Date:

Friday, June 14, 2013

  Actual Average Record
Temperature  
Mean Temperature 86 °F 80 °F  
Max Temperature 96 °F 90 °F 102 °F (1998)
Min Temperature 76 °F 69 °F 58 °F (1903)
Degree Days  
Heating Degree Days 0 0  
Month to date heating degree days 0 0  
Since 1 June heating degree days 0 0  
Since 1 July heating degree days 2081 2226  
Cooling Degree Days 21 15  
Month to date cooling degree days 207 188  
Year to date cooling degree days 594 586  
Since 1 June cooling degree days 207 188  
Growing Degree Days 36 (Base 50)    
Moisture  
Dew Point 74 °F    
Average Humidity 69    
Maximum Humidity 87    
Minimum Humidity 51    
Precipitation  
Precipitation 0.00 in 0.21 in 1.26 in (1989)
Month to date precipitation 4.57 2.50  
Year to date precipitation 21.42 24.71  
Snow  
Snow 0.00 in - - ()
Month to date snowfall 0.0  
Since 1 June snowfall 0.0  
Since 1 July snowfall 0.1  
Snow Depth 0.00 in    
Sea Level Pressure  
Sea Level Pressure 29.92 in    
Wind  
Wind Speed 6 mph (ENE)    
Max Wind Speed 14 mph    
Max Gust Speed 25 mph    
Visibility 10 miles    
Events      
T = Trace of Precipitation, MM = Missing Value Source: NWS Daily Summary

Daily Weather History Graph

Daily Weather History Graph

Search for Another Location

Airport:

Trip Planner

Search our weather history database for the weather conditions in past years. The results will help you decide how hot, cold, wet, or windy it might be!

Date:

Astronomy

Jun. 14, 2013 Rise Set
Actual Time 6:07 AM CDT 8:23 PM CDT
Civil Twilight 5:39 AM CDT 8:52 PM CDT
Nautical Twilight 5:04 AM CDT 9:27 PM CDT
Astronomical Twilight 4:26 AM CDT 10:04 PM CDT
Moon 11:27 AM CDT (6/14) No Moon Set
Length of Visible Light 15h 13m
Length of Day
14h 16m
Waxing Crescent, 30% of the Moon is Illuminated
Jun 14
Waxing Crescent
Jun 16
First Quarter
Jun 23
Full
Jun 29
Last Quarter
Jul 8
New

Hourly Weather History & Observations

Time (CDT) Temp. Heat Index Dew Point Humidity Pressure Visibility Wind Dir Wind Speed Gust Speed Precip Events Conditions
12:56 AM 80.1 °F 84.2 °F 73.0 °F 79% 29.91 in 10.0 mi WSW 6.9 mph - N/A   Clear
1:56 AM 80.1 °F 84.2 °F 73.0 °F 79% 29.91 in 10.0 mi Calm Calm - N/A   Clear
2:56 AM 78.1 °F - 73.0 °F 84% 29.90 in 10.0 mi WSW 3.5 mph - N/A   Clear
3:56 AM 78.1 °F - 73.0 °F 84% 29.89 in 10.0 mi West 3.5 mph - N/A   Clear
4:56 AM 77.0 °F - 72.0 °F 84% 29.90 in 10.0 mi West 3.5 mph - N/A   Clear
5:56 AM 75.9 °F - 72.0 °F 87% 29.94 in 10.0 mi East 4.6 mph - N/A   Mostly Cloudy
6:56 AM 79.0 °F - 73.9 °F 84% 29.96 in 10.0 mi Calm Calm - N/A   Mostly Cloudy
7:56 AM 82.0 °F 88.6 °F 75.0 °F 79% 29.95 in 10.0 mi Calm Calm - N/A   Clear
8:56 AM 87.1 °F 96.3 °F 75.0 °F 67% 29.96 in 10.0 mi Calm Calm - N/A   Clear
9:56 AM 89.1 °F 97.0 °F 73.0 °F 59% 29.96 in 10.0 mi Variable 3.5 mph - N/A   Clear
10:56 AM 91.0 °F 100.4 °F 73.9 °F 57% 29.95 in 10.0 mi NW 6.9 mph - N/A   Partly Cloudy
11:56 AM 91.9 °F 103.9 °F 75.9 °F 59% 29.96 in 10.0 mi North 4.6 mph - N/A   Scattered Clouds
12:56 PM 93.0 °F 103.2 °F 73.9 °F 54% 29.94 in 10.0 mi NE 6.9 mph - N/A   Partly Cloudy
1:56 PM 96.1 °F 108.6 °F 75.0 °F 51% 29.93 in 10.0 mi North 6.9 mph - N/A   Partly Cloudy
2:56 PM 93.0 °F 105.3 °F 75.9 °F 57% 29.91 in 10.0 mi East 5.8 mph - N/A   Partly Cloudy
3:56 PM 93.0 °F 105.3 °F 75.9 °F 57% 29.90 in 10.0 mi NE 9.2 mph - N/A   Mostly Cloudy
4:56 PM 91.9 °F 103.9 °F 75.9 °F 59% 29.89 in 10.0 mi ENE 8.1 mph - N/A   Mostly Cloudy
5:56 PM 91.0 °F 102.9 °F 75.9 °F 61% 29.88 in 10.0 mi East 8.1 mph - N/A   Scattered Clouds
6:56 PM 90.0 °F 100.2 °F 75.0 °F 61% 29.88 in 10.0 mi East 9.2 mph - N/A   Scattered Clouds
7:56 PM 88.0 °F 97.5 °F 75.0 °F 65% 29.88 in 10.0 mi East 10.4 mph - N/A   Scattered Clouds
8:56 PM 84.9 °F 93.3 °F 75.0 °F 72% 29.90 in 10.0 mi East 9.2 mph - N/A   Scattered Clouds
9:56 PM 82.9 °F 88.8 °F 73.0 °F 72% 29.93 in 10.0 mi East 6.9 mph - N/A   Scattered Clouds
10:56 PM 82.0 °F 86.7 °F 72.0 °F 71% 29.95 in 10.0 mi East 11.5 mph - N/A   Partly Cloudy
11:56 PM 81.0 °F 84.1 °F 69.1 °F 67% 29.98 in 10.0 mi SE 6.9 mph - N/A   Scattered Clouds